Location: London
(51.5074°N, 0.1278°W)
Time: 11:08:38
(UTC+01:00)

N. Korean satellite - Pass Details

Date: 01 October 2021
Orbit: 450 x 495 km, 97.3° (Epoch: 15 October)

Event Time Altitude Azimuth Distance (km) Brightness Sun altitude
Rises 06:22:13 0° 14° (NNE) 2,544 10.5 -6.9°
Reaches altitude 10° 06:24:16 10° 16° (NNE) 1,668 9.5 -6.6°
Maximum altitude 06:27:52 75° 102° (ESE) 508 6.8 -6.0°
Drops below altitude 10° 06:31:28 10° 189° (S) 1,677 9.2 -5.5°
Sets 06:33:33 0° 191° (S) 2,559 10.1 -5.2°
